Regional Weather Roundup
Issued by NWS Grand Forks, ND

Home | Current Version | Previous Version | Graphics & Text | Print | Product List | Glossary On
Versions: 1 2 3 4 5 6 7 8 9 10 11 12 13 14 15 16 17 18 19 20 21 22 23 24 25 26 27 28 29 30 31 32 33 34 35 36 37 38 39 40 41 42 43 44 45 46 47 48 49 50
000
ASUS43 KFGF 191610
RWRFGF
PRAIRIE TO PINES  WEATHER ROUNDUP
NATIONAL WEATHER SERVICE EASTERN NORTH DAKOTA/GRAND FORKS ND
1100 AM CDT FRI SEP 19 2014

 **SATELLITE DATA USED TO AUGMENT SKY COVER AT AUTOMATED STATIONS**
 *****  WEATHER ACROSS EASTERN NORTH DAKOTA  *****

CITY           SKY/WX    TMP DP  RH WIND       PRES   REMARKS
GRAND FORKS    LGT RAIN  66  62  87 S10       29.55R
GRAND FRKS AFB CLOUDY    67  65  93 S10       29.55R
GRAND FRKS NWS   N/A     64 N/A N/A S5          N/A
DEVILS LAKE    CLOUDY    66  59  77 CALM      29.51F
FARGO          CLOUDY    66  60  81 S15       29.62F
WAHPETON ARPT  CLOUDY    64  57  77 S15       29.65F
$$

 ***** WEATHER ACROSS CENTRAL AND WESTERN NORTH DAKOTA  *****

CITY           SKY/WX    TMP DP  RH WIND       PRES   REMARKS
BISMARCK       CLOUDY    72  59  63 W12       29.64R
MINOT          SUNNY     72  52  49 W14       29.57R
JAMESTOWN      PTSUNNY   70  64  81 S5        29.58R
MINOT AFB      SUNNY     70  55  60 W9        29.56R
GARRISON         N/A     73  53  49 W15G22    29.61R
WILLISTON      SUNNY     72  47  40 W22G31    29.63S
DICKINSON      SUNNY     73  52  47 W15       29.70R
HETTINGER      PTSUNNY   71  56  58 W13       29.75R
$$

 *****  OTHER AIRPORT OBSERVATIONS IN OUR AREA  *****

CITY           SKY/WX    TMP DP  RH WIND       PRES   REMARKS
WALHALLA         N/A     68  64  88 NW6       29.51F
GRAFTON AIRPOR PTSUNNY   64  64 100 S10       29.53R
VALLEY CITY AR PTSUNNY   66  66 100 S17G23    29.59R
CANDO          FAIR      66  63  88 SE3       29.52F
CAVALIER APRT  FAIR      66  63  88 W12       29.53R
GWINNER        CLOUDY    66  64  94 SW14      29.66R
SHEYENNE NWR     N/A     66  62  86 SW12      29.95S
ROLLA          FAIR      64  63  94 SW15      29.54R
 ***** THE ABOVE OBSERVATIONS ARE NON NWS ARE NOT QUALITY
       CONTROLLED AND MAY MIS-REPORT RAIN FOR SNOW...
$$

  *****  WEATHER ACROSS NORTHERN MINNESOTA  *****

CITY           SKY/WX    TMP DP  RH WIND       PRES   REMARKS
FLAG ISLAND    CLOUDY    57  57 100 S7        29.52R
WARROAD        CLOUDY    63  59  88 S13G22    29.52F
ROSEAU         CLOUDY    64  57  77 S21G28    29.50F
HALLOCK        DRIZZLE   64  63  94 S13       29.52R
THF RVR FALLS  CLOUDY    63  57  82 S18G29    29.58R
BAUDETTE       LGT RAIN  60  57  89 S9        29.56F
WASKISH        CLOUDY    61  57  88 S13G20    29.61R
CROOKSTON      LGT RAIN  61  59  94 S17G26    29.57F
STEPHEN NDAWN    N/A     64  63  94 S14         N/A
GREENBUSH NDAW   N/A    N/A N/A N/A SW12        N/A
$$
  *****  WEATHER ACROSS CENTRAL AND WEST MINNESOTA  *****

CITY           SKY/WX    TMP DP  RH WIND       PRES   REMARKS
FOSSTON        RAIN      57  57 100 S22G28    29.62S
BEMIDJI        LGT RAIN  59  58  94 S13G23    29.63S
PARK RAPIDS    CLOUDY    61  58  90 S16       29.68F
ELBOW LAKE     CLOUDY    62  58  88 S16       29.70F
WADENA         CLOUDY    63  57  82 S13G20    29.70F
DETROIT LAKES  CLOUDY    63  59  88 S10       29.68S
MOORHEAD       CLOUDY    64  64 100 S9        29.65R
FERGUS FALLS   CLOUDY    63  57  82 S14       29.68F
MORRIS MN      PTSUNNY   64  61  88 S9        29.71F
STAPLES        CLOUDY    61  57  88 S8G16     29.73S
$$
  *****  WEATHER ELSEWHERE ACROSS MINNESOTA  *****

CITY           SKY/WX    TMP DP  RH WIND       PRES   REMARKS
DULUTH         CLOUDY    61  52  72 S20G26    29.73F
INTRNTL FALLS  CLOUDY    61  56  83 S7        29.59F
ELY            CLOUDY    61  54  77 S14G21    29.68F
CLOQUET        CLOUDY    61  54  77 S12G18    29.71F
WHEATON        DRIZZLE   63  57  82 S9        29.70R
BRAINERD       CLOUDY    59  56  89 SW15      29.75R FOG
HIBBING        LGT RAIN  59  54  83 SW8G18    29.70F
ALEXANDRIA     CLOUDY    62  58  86 S15       29.73F
SAINT CLOUD    CLOUDY    64  57  78 S18G26    29.74F
MINNEAPOLIS    CLOUDY    66  56  70 S18G26    29.81F
$$

  *****  WEATHER ACROSS SOUTH DAKOTA  *****

CITY           SKY/WX    TMP DP  RH WIND       PRES   REMARKS
SIOUX FALLS    PTSUNNY   73  63  70 S21G29    29.74F
BROOKINGS      NOT AVBL
WATERTOWN      CLOUDY    64  62  93 S15       29.70R
HURON          PTSUNNY   73  63  70 SW14      29.68S
SISSETON         N/A     66  63  90 SW12      29.67R
ABERDEEN       CLOUDY    65  63  93 S10       29.66S
MITCHELL       SUNNY     76  65  68 SW12G22   29.69S
PIERRE         PTSUNNY   72  63  73 W13       29.71R
MOBRIDGE       MOSUNNY   69  65  86 CALM      29.65S
RAPID CITY     CLOUDY    76  54  46 CALM      29.83S
$$

  *****  SOME WEATHER IN NEARBY STATES *****

CITY           SKY/WX    TMP DP  RH WIND       PRES   REMARKS
GLASGOW MT     MOSUNNY   66  48  52 W16       29.72R
GREAT FALLS MT CLOUDY    64  47  53 SW15      29.89R
CHEYENNE WY    SUNNY     75  42  30 NW13G21   30.07R
SCOTTSBLUFF NE SUNNY     73  52  47 NW9       29.94R
OMAHA NE       PTSUNNY   70  63  78 S17       29.92S HAZE
DES MOINES IA  PTSUNNY   70  61  73 S16G28    29.99S
DAVENPORT IA   SUNNY     69  53  56 S15       30.09F
CHICAGO IL     MOSUNNY   66  51  58 S13       30.15F
EAU CLAIRE WI  MOSUNNY   66  53  63 S16G25    29.92F
LA CROSSE WI   SUNNY     68  54  60 S18       29.96F
$$

  *****  SOME NATIONAL WEATHER *****

CITY           SKY/WX    TMP DP  RH WIND       PRES   REMARKS
LA GUARDIA NY  MOSUNNY   61  44  53 NE18      30.34F
RALEIGH NC     MOSUNNY   77  56  48 E12G22    30.20R
ATLANTA GA     MOSUNNY   80  65  59 E12       30.10S
NEW ORLEANS LA PTSUNNY   84  67  56 E10       29.97R
OKLAHOMA CITY  MOSUNNY   76  70  82 S7        30.01S
ALBUQUERQUE NM MOSUNNY   73  56  54 VRB5      30.12R
SALT LAKE CITY MOSUNNY   69  57  65 W3        30.05R
LOS ANGELES CA PTSUNNY   70  61  73 W3        29.92R
BOISE ID       SUNNY     64  49  57 NW7       30.08R
SEATTLE WA     CLOUDY    64  57  78 S5        30.09R
$$

*** WEATHER ACROSS MANITOBA...SASKATCHEWAN AND ONTARIO ***
                ***ONTARIO***

CITY           SKY/WX    TMP DP  RH WIND       PRES   REMARKS
GERALDTON      TSTM      52  52 100 S18       29.70  VSB 1
THUNDER BAY    CLOUDY    59  54  82 SE5       29.77F
SIOUX LOOKOUT  CLOUDY    59  55  88 S15G21    29.52F
TORONTO        MOSUNNY   55  41  58 SE8       30.33S
BIG TROUT LK   CLOUDY    54  52  94 W7        29.38S
PICKLE LAKE    CLOUDY    55  54  94 SW10      29.48F
DRYDEN         CLOUDY    59  55  88 SW20G30   29.53F
KENORA         NOT AVBL
$$
                *** MANITOBA***

CITY           SKY/WX    TMP DP  RH WIND       PRES   REMARKS
BRANDON        TSTM      61  59  94 W12       29.54R
DAUPHIN        PTSUNNY   59  54  82 NE5       29.54R
ISLAND LAKE    CLOUDY    54  54 100 N6        29.45  FOG
PILOT MOUND    NOT AVBL
THE PAS        NOT AVBL
THOMPSON       CLOUDY    48  46  93 NW9       29.53
WINNIPEG       LGT RAIN  64  61  88 SW5       29.47F
LYNN LAKE      CLOUDY    48  39  71 N9        29.57R
CHURCHILL      PTSUNNY   41  32  70 NW23G30   29.41R
$$
                ***SASKATCHEWAN***

CITY           SKY/WX    TMP DP  RH WIND       PRES   REMARKS
ESTEVAN        MOSUNNY   68  50  52 NW14G23   29.58R
KINDERSLEY     MOSUNNY   61  54  77 NW8       29.70S
LLOYDMINSTER   MOSUNNY   59  52  77 W13       29.65R
PRINCE ALBERT  CLOUDY    55  54  94 E5        29.62R
REGINA         PTSUNNY   59  54  82 NW10      29.63R
YORKTON        PTSUNNY   57  54  88 NW9       29.58R
N. BATTLEFORD  PTSUNNY   59  54  82 W9        29.67R
LA RONGE       CLOUDY    54  52  94 S3        29.61R
SASKATOON      CLOUDY    55  54  94 W5        29.66R
SWIFT CURRENT  MOSUNNY   59  52  77 W12       29.70R
$$
NOTE: THESE ARE AUTOMATED STATIONS WITH LIMITED QUALITY CONTROL
      "FAIR" INDICATES FEW OR NO CLOUDS BELOW 12,000 FEET WITH NO
      SIGNIFICANT WEATHER AND/OR OBSTRUCTIONS TO VISIBILITY.
      SKY/WX - SKY CONDITION AND SIGNIFICANT WEATHER.
      TMP - AIR TEMPERATURE.    DP   - DEWPOINT TEMPERATURE.
      RH  - RELATIVE HUMIDITY.  PRES - PRESSURE.
      HX  - HEAT INDEX.         WCI  - WIND CHILL INDEX.
$


USA.gov is the U.S. government's official web portal to all federal, state and local government web resources and services.